(515535) = 2014 GC14

Discovered at Kitt Peak on 2014-03-25 by Spacewatch.

Orbit

Orbit type: Main Belt

Note: WebGL enabled browser required.

epoch2022-01-21.0
epoch JD2459600.5
perihelion date2018-03-06.50906
perihelion JD2458184.00906
argument of perihelion (°)122.66323
ascending node (°)30.55373
inclination (°)12.38918
eccentricity0.2341600
perihelion distance (AU)2.0200358
Tisserand w.r.t. Jupiter3.3
ΔV w.r.t. Earth (km/sec)9.7
semimajor axis (AU)2.6376733
mean anomaly (°)325.90134
mean daily motion (°/day)0.23007650
aphelion distance (AU)3.255
period (years)4.28
P-vector [x]-0.88275339
P-vector [y]0.32609326
P-vector [z]0.33824494
Q-vector [x]-0.45700223
Q-vector [y]-0.76306408
Q-vector [z]-0.45703630
absolute magnitude17.51
phase slope0.15
uncertainty0
referenceMPO 701217
observations used112
oppositions6
arc length (days)3450
first opposition used2012
last opposition used2022
residual rms (arc-secs)0.78
perturbers coarse indicatorM-v
perturbers precise indicator003Ek
first observation date used2012-10-15.0
last observation date used2022-03-27.0
computer namePan

Observations

115 total observations over interval: 2012 10 15.27702 – 2022 03 27.216199
These data are available for download (format description).

Date (UT) J2000 RA J2000 Dec Magn Location Ref
2012 10 15.27702 02 38 19.19 +17 04 52.2 21.2 V 691 – Steward Observatory, Kitt Peak-Spacewatch MPS 871613
2012 10 15.29818 02 38 18.02 +17 04 53.1 21.5 V 691 – Steward Observatory, Kitt Peak-Spacewatch MPS 871613
2012 10 15.31589 02 38 17.07 +17 04 53.4 21.2 V 691 – Steward Observatory, Kitt Peak-Spacewatch MPS 871613
2014 03 25.29402 14 01 41.89 -07 32 36.3 20.2 V 691 – Steward Observatory, Kitt Peak-Spacewatch MPS 510014
2014 03 25.31173 14 01 40.98 -07 32 39.2 20.2 V 691 – Steward Observatory, Kitt Peak-Spacewatch MPS 510014
2014 03 25.32944 14 01 40.11 -07 32 41.9 20.2 V 691 – Steward Observatory, Kitt Peak-Spacewatch MPS 510014
2014 04 02.28369 13 54 32.66 -07 51 46.8   691 – Steward Observatory, Kitt Peak-Spacewatch MPS 510014
2014 04 02.30138 13 54 31.52 -07 51 49.4   691 – Steward Observatory, Kitt Peak-Spacewatch MPS 510014
2014 04 02.31908 13 54 30.47 -07 51 51.6   691 – Steward Observatory, Kitt Peak-Spacewatch MPS 510014
2014 04 04.44976 13 52 22.191 -07 56 29.91 19.9 w F51 – Pan-STARRS 1, Haleakala MPS 510014
2014 04 04.46113 13 52 21.457 -07 56 31.31 19.9 w F51 – Pan-STARRS 1, Haleakala MPS 510014
2014 04 04.47249 13 52 20.730 -07 56 32.84 19.9 w F51 – Pan-STARRS 1, Haleakala MPS 510014
2014 04 04.48384 13 52 19.999 -07 56 34.24 20.0 w F51 – Pan-STARRS 1, Haleakala MPS 510014
2014 04 08.23829 13 48 24.34 -08 04 27.8 19.8 V 691 – Steward Observatory, Kitt Peak-Spacewatch MPS 510014
2014 04 08.25596 13 48 23.20 -08 04 30.5 19.7 V 691 – Steward Observatory, Kitt Peak-Spacewatch MPS 510014
2014 04 08.27363 13 48 22.02 -08 04 32.5 19.8 V 691 – Steward Observatory, Kitt Peak-Spacewatch MPS 510014
2014 04 08.37017 13 48 15.54 -08 04 44.9 19.8 V 703 – Catalina Sky Survey MPS 510014
2014 04 08.37768 13 48 15.06 -08 04 45.3 20.2 V 703 – Catalina Sky Survey MPS 510014
2014 04 08.38518 13 48 14.52 -08 04 47.0 20.3 V 703 – Catalina Sky Survey MPS 510014
2014 04 08.39267 13 48 14.06 -08 04 48.5 19.6 V 703 – Catalina Sky Survey MPS 510014
2014 04 20.39702 13 35 06.65 -08 28 57.6 19.9 V 703 – Catalina Sky Survey MPS 511300
2014 04 20.41252 13 35 05.60 -08 29 00.1 19.8 V 703 – Catalina Sky Survey MPS 511300
2014 05 09.23089 13 17 40.33 -09 14 26.6 20.1 V G96 – Mt. Lemmon Survey MPS 513947
2014 05 09.24095 13 17 39.90 -09 14 28.1 19.4 V G96 – Mt. Lemmon Survey MPS 513947
2014 05 09.24904 13 17 39.52 -09 14 29.5 20.4 V G96 – Mt. Lemmon Survey MPS 513947
2014 05 09.25711 13 17 39.17 -09 14 31.1 20.1 V G96 – Mt. Lemmon Survey MPS 513947
2014 05 20.32918 13 11 37.194 -09 51 55.85 20.7 w F51 – Pan-STARRS 1, Haleakala MPS 515383
2014 05 20.34213 13 11 36.869 -09 51 58.80 20.8 w F51 – Pan-STARRS 1, Haleakala MPS 515383
2014 05 20.35506 13 11 36.537 -09 52 01.75 20.5 w F51 – Pan-STARRS 1, Haleakala MPS 515383
2014 05 20.36797 13 11 36.219 -09 52 04.70 20.6 w F51 – Pan-STARRS 1, Haleakala MPS 515383
2016 09 30.47853 01 11 37.105 +01 48 49.18 21.5 w F51 – Pan-STARRS 1, Haleakala MPS 871613
2016 09 30.48976 01 11 36.476 +01 48 47.26 21.6 w F51 – Pan-STARRS 1, Haleakala MPS 871613
2016 09 30.50097 01 11 35.824 +01 48 45.78 21.7 w F51 – Pan-STARRS 1, Haleakala MPS 871613
2017 11 28.48240 10 12 43.92 +27 42 06.8 20.8 G G96 – Mt. Lemmon Survey MPS 871613
2017 11 28.48889 10 12 44.39 +27 42 07.1 21.4 G G96 – Mt. Lemmon Survey MPS 871613
2017 11 28.49531 10 12 44.95 +27 42 06.6 21.4 G G96 – Mt. Lemmon Survey MPS 871613
2017 11 28.50055 10 12 45.37 +27 42 06.7 21.1 G G96 – Mt. Lemmon Survey MPS 871613
2017 12 13.45888 10 31 22.02 +27 49 20.1 20.9 G G96 – Mt. Lemmon Survey MPS 871613
2017 12 13.46402 10 31 22.42 +27 49 20.3 22.0 G G96 – Mt. Lemmon Survey MPS 871613
2017 12 13.46914 10 31 22.69 +27 49 21.1 20.9 G G96 – Mt. Lemmon Survey MPS 871613
2017 12 13.47428 10 31 23.02 +27 49 21.9 22.1 G G96 – Mt. Lemmon Survey MPS 871613
2017 12 28.43300 10 44 08.66 +28 29 21.1 20.3 G G96 – Mt. Lemmon Survey MPS 871613
2017 12 28.44446 10 44 09.05 +28 29 24.2 20.8 G G96 – Mt. Lemmon Survey MPS 871613
2017 12 28.44959 10 44 09.22 +28 29 26.0 20.7 G G96 – Mt. Lemmon Survey MPS 871613
2017 12 28.45471 10 44 09.42 +28 29 27.0 20.7 G G96 – Mt. Lemmon Survey MPS 871613
2018 01 16.46736 10 49 20.692 +30 05 13.10 20.3 w F51 – Pan-STARRS 1, Haleakala MPS 871613
2018 01 16.47910 10 49 20.590 +30 05 17.52 20.3 w F51 – Pan-STARRS 1, Haleakala MPS 871613
2018 01 16.49089 10 49 20.484 +30 05 21.78 20.3 w F51 – Pan-STARRS 1, Haleakala MPS 871613
2018 01 16.50279 10 49 20.371 +30 05 26.12 20.4 w F51 – Pan-STARRS 1, Haleakala MPS 871613
2018 01 27.23910 10 45 56.26 +31 09 46.8 19.9 G G96 – Mt. Lemmon Survey MPS 871613
2018 01 27.24440 10 45 56.08 +31 09 48.7 21.1 G G96 – Mt. Lemmon Survey MPS 871613
2018 01 27.26474 10 45 55.34 +31 09 56.3 21.2 G G96 – Mt. Lemmon Survey MPS 871613
2018 01 27.27004 10 45 55.22 +31 09 58.1 20.0 G G96 – Mt. Lemmon Survey MPS 871613
2018 02 05.39183 10 39 37.40 +31 58 14.0 19.8 G 703 – Catalina Sky Survey MPS 871613
2018 02 05.39708 10 39 37.04 +31 58 14.7 19.2 G 703 – Catalina Sky Survey MPS 871613
2018 02 05.40232 10 39 36.83 +31 58 16.4 19.7 G 703 – Catalina Sky Survey MPS 871613
2018 02 05.40756 10 39 36.53 +31 58 17.9 19.6 G 703 – Catalina Sky Survey MPS 871613
2018 02 08.32504 10 37 02.88 +32 10 45.2   703 – Catalina Sky Survey MPS 871613
2018 02 08.33031 10 37 02.51 +32 10 46.5 19.4 G 703 – Catalina Sky Survey MPS 871613
2018 02 08.33559 10 37 02.18 +32 10 48.4 19.1 G 703 – Catalina Sky Survey MPS 871613
2018 02 08.34086 10 37 01.87 +32 10 48.8 19.4 G 703 – Catalina Sky Survey MPS 871613
2018 02 09.30560 10 36 08.15 +32 14 29.4 19.6 r I41 – Palomar Mountain--ZTF MPS 871613
2018 02 09.31985 10 36 07.31 +32 14 32.5 19.8 r I41 – Palomar Mountain--ZTF MPS 871613
2018 02 09.34338 10 36 05.89 +32 14 38.1 19.7 r I41 – Palomar Mountain--ZTF MPS 871613
2018 02 09.36019 10 36 04.88 +32 14 41.6 19.7 r I41 – Palomar Mountain--ZTF MPS 871613
2018 02 09.37949 10 36 03.73 +32 14 46.0 19.8 r I41 – Palomar Mountain--ZTF MPS 871613
2018 02 10.31897 10 35 10.04 +32 18 07.1 19.9 G G96 – Mt. Lemmon Survey MPS 871613
2018 02 10.32416 10 35 09.72 +32 18 08.3 19.7 G G96 – Mt. Lemmon Survey MPS 871613
2018 02 10.32933 10 35 09.40 +32 18 09.3 19.8 G G96 – Mt. Lemmon Survey MPS 871613
2018 02 10.33451 10 35 09.09 +32 18 10.4 19.8 G G96 – Mt. Lemmon Survey MPS 871613
2018 02 11.32455 10 34 11.12 +32 21 26.9 19.6 r I41 – Palomar Mountain--ZTF MPS 871613
2018 02 11.34660 10 34 09.76 +32 21 31.3 19.7 r I41 – Palomar Mountain--ZTF MPS 871613
2018 02 11.36369 10 34 08.69 +32 21 34.4 19.6 r I41 – Palomar Mountain--ZTF MPS 871613
2018 02 11.37804 10 34 07.79 +32 21 36.7 19.7 r I41 – Palomar Mountain--ZTF MPS 871613
2018 02 11.39735 10 34 06.56 +32 21 40.5 19.8 r I41 – Palomar Mountain--ZTF MPS 871613
2018 02 23.25046 10 21 31.01 +32 37 06.2 20.1 G 703 – Catalina Sky Survey MPS 871613
2018 02 23.26103 10 21 30.25 +32 37 06.6 19.8 G 703 – Catalina Sky Survey MPS 871613
2018 02 23.26632 10 21 29.91 +32 37 06.6 19.7 G 703 – Catalina Sky Survey MPS 871613
2018 03 07.24405 10 09 14.82 +32 02 06.9 19.70 r I41 – Palomar Mountain--ZTF MPS 872673
2018 03 07.26339 10 09 13.70 +32 02 01.1 19.78 r I41 – Palomar Mountain--ZTF MPS 872673
2018 03 07.26439 10 09 13.65 +32 02 00.9 19.83 r I41 – Palomar Mountain--ZTF MPS 872673
2018 03 07.29156 10 09 12.05 +32 01 52.8 19.94 r I41 – Palomar Mountain--ZTF MPS 872673
2018 03 13.23798 10 04 14.24 +31 25 45.7 19.7 G G96 – Mt. Lemmon Survey MPS 874434
2018 03 13.24317 10 04 14.03 +31 25 43.1 19.7 G G96 – Mt. Lemmon Survey MPS 874434
2018 03 13.24837 10 04 13.71 +31 25 40.7 18.6 G G96 – Mt. Lemmon Survey MPS 874434
2018 03 13.25363 10 04 13.48 +31 25 39.7 18.3 G G96 – Mt. Lemmon Survey MPS 874434
2018 03 19.26570 10 00 20.117 +30 38 02.50 20.4 w F51 – Pan-STARRS 1, Haleakala MPS 876156
2018 03 19.27671 10 00 19.729 +30 37 56.93 20.3 w F51 – Pan-STARRS 1, Haleakala MPS 876156
2018 03 19.28775 10 00 19.333 +30 37 51.18 20.4 w F51 – Pan-STARRS 1, Haleakala MPS 876156
2018 04 09.16888 09 57 02.08 +26 49 49.7 20.9 G G96 – Mt. Lemmon Survey MPS 881750
2018 04 09.17408 09 57 02.15 +26 49 45.5 21.2 G G96 – Mt. Lemmon Survey MPS 881750
2018 04 09.17929 09 57 02.17 +26 49 42.2 21.3 G G96 – Mt. Lemmon Survey MPS 881750
2018 04 09.18450 09 57 02.24 +26 49 38.4 20.8 G G96 – Mt. Lemmon Survey MPS 881750
2018 05 08.13952 10 15 23.53 +20 13 53.5 20.6 G G96 – Mt. Lemmon Survey MPS 890967
2018 05 08.14473 10 15 23.81 +20 13 48.8 21.1 G G96 – Mt. Lemmon Survey MPS 890967
2018 05 08.14993 10 15 24.09 +20 13 44.4 20.8 G G96 – Mt. Lemmon Survey MPS 890967
2018 05 08.15515 10 15 24.36 +20 13 39.8 21.1 G G96 – Mt. Lemmon Survey MPS 890967
2020 09 09.44776 00 07 27.497 -10 58 39.18 21.6 i F51 – Pan-STARRS 1, Haleakala MPS 1285154
2020 09 09.45926 00 07 26.923 -10 58 42.40 21.6 i F51 – Pan-STARRS 1, Haleakala MPS 1285154
2020 09 09.47068 00 07 26.312 -10 58 44.98 21.8 i F51 – Pan-STARRS 1, Haleakala MPS 1285154
2020 10 20.29378 23 33 09.739 -12 17 38.06 22.4 w F51 – Pan-STARRS 1, Haleakala MPS 1285154
2020 10 20.30506 23 33 09.333 -12 17 37.40 22.3 w F51 – Pan-STARRS 1, Haleakala MPS 1285154
2020 10 20.31630 23 33 08.900 -12 17 37.02 22.3 w F51 – Pan-STARRS 1, Haleakala MPS 1285154
2021 11 09.540652 06 28 11.162 +36 45 35.36 21.16 w F51 – Pan-STARRS 1, Haleakala MPS 1511369
2021 11 09.556733 06 28 11.163 +36 45 43.92 21.05 w F51 – Pan-STARRS 1, Haleakala MPS 1511369
2021 11 09.565957 06 28 11.163 +36 45 48.42 21.02 w F51 – Pan-STARRS 1, Haleakala MPS 1511369
2021 11 09.575281 06 28 11.165 +36 45 53.34 21.00 w F51 – Pan-STARRS 1, Haleakala MPS 1511369
2021 11 29.295423 06 21 26.19 +39 39 13.4 21.03 G V00 – Kitt Peak-Bok MPS 1524319
2021 11 29.300300 06 21 25.97 +39 39 16.0 21.05 G V00 – Kitt Peak-Bok MPS 1524319
2021 11 29.305151 06 21 25.74 +39 39 18.6 20.91 G V00 – Kitt Peak-Bok MPS 1524319
2021 11 29.310011 06 21 25.52 +39 39 21.1 20.96 G V00 – Kitt Peak-Bok MPS 1524319
2022 03 27.196739 06 13 29.86 +37 06 34.3 20.99 G V00 – Kitt Peak-Bok MPS 1587928
2022 03 27.203243 06 13 30.49 +37 06 32.3 21.55 G V00 – Kitt Peak-Bok MPS 1587928
2022 03 27.209721 06 13 31.16 +37 06 30.0 21.53 G V00 – Kitt Peak-Bok MPS 1587928
2022 03 27.216199 06 13 31.81 +37 06 28.0 21.18 G V00 – Kitt Peak-Bok MPS 1587928